College Park, MD

8:57 AM EST on December 08, 2019 (GMT -0500)
College Park

Weather History for KCGS - October, 2019

Change the Weather History Date:

Tuesday, October 1, 2019

  Actual Average Record
Temperature  
Mean Temperature 74 °F -  
Max Temperature 86 °F 72 °F 93 °F (1986)
Min Temperature 63 °F 52 °F 36 °F (1993)
Cooling Degree Days 10    
Growing Degree Days 24 (Base 50)    
Moisture  
Dew Point 60 °F    
Average Humidity 61    
Maximum Humidity 78    
Minimum Humidity 45    
Precipitation  
Precipitation 0.00 in - - ()
Sea Level Pressure  
Sea Level Pressure 30.08 in    
Wind  
Wind Speed 2 mph (South)    
Max Wind Speed 8 mph    
Max Gust Speed -    
Visibility 10 miles    
Events      
Averages and records for this station are not official NWS values.
T = Trace of Precipitation, MM = Missing Value Source: NWS Daily Summary

Daily Weather History Graph

Daily Weather History Graph

Search for Another Location

Airport or City:

Astronomy

Oct. 01, 2019 Rise Set
Actual Time 7:03 AM EDT 6:50 PM EDT
Civil Twilight 6:36 AM EDT 7:17 PM EDT
Nautical Twilight 6:05 AM EDT 7:48 PM EDT
Astronomical Twilight 5:34 AM EDT 8:19 PM EDT
Moon 10:15 AM EDT (10/1) 9:04 PM EDT (10/1)
Length of Visible Light 12h 40m
Length of Day
11h 47m
Waxing Crescent, 12% of the Moon is Illuminated
Oct 1
Waxing Crescent
Oct 5
First Quarter
Oct 13
Full
Oct 21
Last Quarter
Oct 27
New

Hourly Weather History & Observations

Time (EDT) Temp. Heat Index Dew Point Humidity Pressure Visibility Wind Dir Wind Speed Gust Speed Precip Events Conditions
12:03 AM 68.2 °F - 56.5 °F 66% 30.19 in 10.0 mi SE 4.6 mph - N/A   Overcast
12:23 AM 68.2 °F - 55.9 °F 65% 30.18 in 10.0 mi Calm Calm - N/A   Overcast
12:43 AM 68.0 °F - 55.8 °F 65% 30.17 in 10.0 mi SSE 3.5 mph - N/A   Overcast
1:23 AM 68.0 °F - 55.4 °F 64% 30.16 in 10.0 mi Calm Calm - N/A   Overcast
1:43 AM 68.0 °F - 55.4 °F 64% 30.17 in 10.0 mi South 3.5 mph - N/A   Overcast
2:03 AM 68.0 °F - 55.4 °F 64% 30.16 in 10.0 mi Calm Calm - N/A   Overcast
2:23 AM 67.6 °F - 55.4 °F 65% 30.16 in 10.0 mi Calm Calm - N/A   Overcast
2:43 AM 67.6 °F - 55.4 °F 65% 30.15 in 10.0 mi Calm Calm - N/A   Overcast
3:03 AM 67.5 °F - 55.4 °F 65% 30.15 in 10.0 mi Calm Calm - N/A   Overcast
3:23 AM 67.6 °F - 55.4 °F 65% 30.15 in 10.0 mi Calm Calm - N/A   Overcast
3:43 AM 67.5 °F - 55.6 °F 66% 30.15 in 10.0 mi Calm Calm - N/A   Overcast
4:03 AM 67.1 °F - 55.9 °F 67% 30.15 in 10.0 mi Calm Calm - N/A   Overcast
4:23 AM 66.9 °F - 56.5 °F 69% 30.15 in 10.0 mi Calm Calm - N/A   Overcast
4:43 AM 66.4 °F - 56.7 °F 71% 30.15 in 10.0 mi Calm Calm - N/A   Overcast
5:03 AM 66.2 °F - 56.7 °F 71% 30.15 in 10.0 mi Calm Calm - N/A   Overcast
5:23 AM 66.2 °F - 57.2 °F 73% 30.15 in 10.0 mi Calm Calm - N/A   Overcast
5:43 AM 66.2 °F - 57.2 °F 73% 30.15 in 10.0 mi Calm Calm - N/A   Overcast
6:03 AM 66.4 °F - 56.7 °F 71% 30.15 in 10.0 mi Calm Calm - N/A   Overcast
6:23 AM 65.5 °F - 57.0 °F 74% 30.15 in 10.0 mi Calm Calm - N/A   Mostly Cloudy
7:03 AM 63.9 °F - 56.7 °F 77% 30.15 in 10.0 mi Calm Calm - N/A   Scattered Clouds
7:43 AM 64.0 °F - 57.2 °F 78% 30.15 in 10.0 mi Calm Calm - N/A   Clear
8:03 AM 65.7 °F - 57.6 °F 75% 30.14 in 10.0 mi Calm Calm - N/A   Clear
8:23 AM 68.5 °F - 57.4 °F 67% 30.15 in 10.0 mi SSE 3.5 mph - N/A   Clear
8:43 AM 69.6 °F - 57.9 °F 66% 30.14 in 10.0 mi SSE 4.6 mph - N/A   Clear
9:03 AM 70.5 °F - 58.1 °F 65% 30.14 in 10.0 mi Calm Calm - N/A   Clear
9:23 AM 71.6 °F - 58.3 °F 63% 30.14 in 10.0 mi SSW 4.6 mph - N/A   Clear
9:43 AM 72.3 °F - 58.8 °F 62% 30.14 in 10.0 mi SSW 4.6 mph - N/A   Clear
10:03 AM 73.0 °F - 59.0 °F 61% 30.14 in 10.0 mi WSW 3.5 mph - N/A   Clear
10:43 AM 75.6 °F - 59.9 °F 58% 30.13 in 10.0 mi Calm Calm - N/A   Clear
11:03 AM 76.1 °F - 59.9 °F 57% 30.12 in 10.0 mi Calm Calm - N/A   Clear
11:23 AM 76.6 °F - 60.1 °F 56% 30.12 in 10.0 mi Calm Calm - N/A   Clear
11:43 AM 78.1 °F - 60.8 °F 55% 30.11 in 10.0 mi SSW 4.6 mph - N/A   Clear
12:23 PM 79.7 °F - 60.3 °F 51% 30.09 in 10.0 mi Calm Calm - N/A   Clear
12:43 PM 80.6 °F 81.5 °F 60.8 °F 51% 30.08 in 10.0 mi South 4.6 mph - N/A   Clear
1:03 PM 81.3 °F 82.2 °F 61.5 °F 51% 30.08 in 10.0 mi South 3.5 mph - N/A   Clear
1:23 PM 81.5 °F 82.5 °F 62.1 °F 52% 30.07 in 10.0 mi South 6.9 mph - N/A   Scattered Clouds
1:43 PM 81.5 °F 82.4 °F 61.9 °F 51% 30.06 in 10.0 mi SW 4.6 mph - N/A   Mostly Cloudy
2:03 PM 82.6 °F 83.2 °F 61.7 °F 49% 30.05 in 10.0 mi South 3.5 mph - N/A   Scattered Clouds
2:23 PM 83.7 °F 84.1 °F 61.7 °F 47% 30.04 in 10.0 mi SW 6.9 mph - N/A   Clear
2:43 PM 84.0 °F 84.5 °F 61.7 °F 47% 30.03 in 10.0 mi SSE 4.6 mph - N/A   Clear
3:03 PM 84.7 °F 85.2 °F 61.9 °F 46% 30.03 in 10.0 mi SW 5.8 mph - N/A   Clear
3:23 PM 84.9 °F 85.4 °F 62.1 °F 46% 30.02 in 10.0 mi SW 6.9 mph - N/A   Clear
3:43 PM 85.6 °F 86.1 °F 62.2 °F 45% 30.02 in 10.0 mi SW 4.6 mph - N/A   Clear
4:03 PM 85.5 °F 86.1 °F 62.6 °F 46% 30.01 in 10.0 mi SW 6.9 mph - N/A   Clear
4:23 PM 85.5 °F 86.1 °F 62.6 °F 46% 30.01 in 10.0 mi South 8.1 mph - N/A   Clear
4:43 PM 86.0 °F 86.6 °F 62.6 °F 45% 30.00 in 10.0 mi SW 5.8 mph - N/A   Clear
5:03 PM 85.3 °F 86.1 °F 62.8 °F 47% 30.00 in 10.0 mi South 5.8 mph - N/A   Clear
5:23 PM 84.7 °F 85.6 °F 63.0 °F 48% 30.00 in 10.0 mi South 4.6 mph - N/A   Clear
5:43 PM 84.6 °F 85.4 °F 63.0 °F 48% 30.00 in 10.0 mi South 5.8 mph - N/A   Clear
6:03 PM 84.2 °F 85.2 °F 63.1 °F 49% 29.99 in 10.0 mi South 4.6 mph - N/A   Clear
6:23 PM 83.5 °F 84.7 °F 63.5 °F 51% 29.99 in 10.0 mi Calm Calm - N/A   Clear
6:43 PM 82.9 °F 84.2 °F 63.5 °F 52% 29.99 in 10.0 mi Calm Calm - N/A   Clear
7:03 PM 82.2 °F 83.7 °F 63.9 °F 54% 29.99 in 10.0 mi South 3.5 mph - N/A   Clear
7:23 PM 81.7 °F 83.2 °F 64.0 °F 55% 29.99 in 10.0 mi Calm Calm - N/A   Clear
7:43 PM 81.1 °F 82.7 °F 64.0 °F 56% 29.99 in 10.0 mi Calm Calm - N/A   Clear
8:03 PM 78.1 °F - 64.4 °F 63% 29.99 in 10.0 mi Calm Calm - N/A   Clear
8:23 PM 76.3 °F - 64.6 °F 67% 29.99 in 10.0 mi Calm Calm - N/A   Clear
8:43 PM 75.7 °F - 64.4 °F 68% 29.99 in 10.0 mi Calm Calm - N/A   Clear
9:03 PM 74.5 °F - 64.4 °F 71% 29.99 in 10.0 mi Calm Calm - N/A   Scattered Clouds
9:23 PM 73.9 °F - 64.4 °F 72% 29.99 in 10.0 mi Calm Calm - N/A   Mostly Cloudy
9:43 PM 74.3 °F - 64.4 °F 71% 29.99 in 10.0 mi Calm Calm - N/A   Overcast
10:03 PM 74.7 °F - 64.8 °F 71% 29.99 in 10.0 mi Calm Calm - N/A   Mostly Cloudy
10:23 PM 73.6 °F - 64.4 °F 73% 29.99 in 10.0 mi Calm Calm - N/A   Scattered Clouds
10:43 PM 72.7 °F - 63.9 °F 74% 29.98 in 10.0 mi Calm Calm - N/A   Clear
11:03 PM 72.9 °F - 63.7 °F 73% 29.98 in 10.0 mi Calm Calm - N/A   Clear
11:23 PM 72.7 °F - 63.5 °F 73% 29.97 in 10.0 mi Calm Calm - N/A   Clear
11:43 PM 75.0 °F - 63.0 °F 66% 29.96 in 10.0 mi Calm Calm - N/A   Clear